Monterey, CA

1:50 AM PST on January 17, 2017 (GMT -0800)
Monterey Peninsula

Weather History for KMRY - June, 2013

Change the Weather History Date:

Monday, June 24, 2013

  Actual Average Record
Temperature  
Mean Temperature 66 °F 60 °F  
Max Temperature 72 °F 67 °F 74 °F (2003)
Min Temperature 59 °F 53 °F 48 °F (2003)
Degree Days  
Heating Degree Days 0    
Month to date heating degree days 128  
Since 1 June heating degree days 128  
Since 1 July heating degree days 3274  
Cooling Degree Days 1    
Month to date cooling degree days 1  
Year to date cooling degree days 8  
Since 1 June cooling degree days 1  
Growing Degree Days 15 (Base 50)    
Moisture  
Dew Point 58 °F    
Average Humidity 82    
Maximum Humidity 97    
Minimum Humidity 66    
Precipitation  
Precipitation 0.02 in - 0.02 in (1998)
Month to date precipitation 0.04  
Year to date precipitation 3.15  
Since 1 July precipitation 11.39  
Sea Level Pressure  
Sea Level Pressure 29.89 in    
Wind  
Wind Speed 5 mph (WSW)    
Max Wind Speed 15 mph    
Max Gust Speed 20 mph    
Visibility 8 miles    
Events      
T = Trace of Precipitation, MM = Missing Value Source: NWS Daily Summary

Daily Weather History Graph

Daily Weather History Graph

Search for Another Location

Airport or City:

Trip Planner

Search our weather history database for the weather conditions in past years. The results will help you decide how hot, cold, wet, or windy it might be!

Date:

Astronomy

Jun. 24, 2013 Rise Set
Actual Time 5:50 AM PDT 8:29 PM PDT
Civil Twilight 5:19 AM PDT 9:00 PM PDT
Nautical Twilight 4:41 AM PDT 9:38 PM PDT
Astronomical Twilight 3:58 AM PDT 10:20 PM PDT
Moon 9:40 PM PDT (6/24) 7:21 AM PDT (6/24)
Length of Visible Light 15h 40m
Length of Day
14h 39m
Full, 97% of the Moon is Illuminated
Jun 24
Full
Jun 29
Last Quarter
Jul 8
New
Jul 15
First Quarter
Jul 22
Full

Hourly Weather History & Observations

Time (PDT) Temp. Dew Point Humidity Pressure Visibility Wind Dir Wind Speed Gust Speed Precip Events Conditions
12:54 AM 60.1 °F 57.9 °F 93% 29.88 in 10.0 mi Calm Calm - N/A   Overcast
1:19 AM 60.8 °F 57.2 °F 88% 29.84 in 10.0 mi Calm Calm - N/A   Overcast
1:54 AM 60.1 °F 57.0 °F 90% 29.87 in 10.0 mi WNW 3.5 mph - N/A   Overcast
2:06 AM 60.8 °F 57.2 °F 88% 29.84 in 10.0 mi West 3.5 mph - N/A   Overcast
2:20 AM 59.0 °F 57.2 °F 94% 29.84 in 5.0 mi Calm Calm - N/A   Overcast
2:46 AM 59.0 °F 57.2 °F 94% 29.84 in 1.8 mi Calm Calm - N/A   Overcast
2:54 AM 59.0 °F 57.9 °F 96% 29.86 in 1.8 mi Calm Calm - N/A   Overcast
3:01 AM 59.0 °F 57.2 °F 94% 29.83 in 2.0 mi Calm Calm - N/A   Overcast
3:54 AM 60.1 °F 57.9 °F 93% 29.87 in 2.5 mi Calm Calm - N/A   Overcast
4:24 AM 60.8 °F 57.2 °F 88% 29.83 in 3.0 mi Calm Calm - 0.01 in   Overcast
4:45 AM 60.8 °F 57.2 °F 88% 29.83 in 4.0 mi Calm Calm - 0.01 in   Overcast
4:54 AM 60.1 °F 59.0 °F 96% 29.86 in 4.0 mi Calm Calm - 0.01 in   Overcast
5:18 AM 60.8 °F 57.2 °F 88% 29.84 in 8.0 mi NW 3.5 mph - N/A   Overcast
5:29 AM 60.8 °F 57.2 °F 88% 29.84 in 4.0 mi Calm Calm - 0.01 in   Overcast
5:54 AM 59.0 °F 57.9 °F 96% 29.88 in 6.0 mi Calm Calm - 0.01 in   Overcast
6:14 AM 59.0 °F 57.2 °F 94% 29.84 in 10.0 mi Calm Calm - N/A   Overcast
6:40 AM 60.8 °F 59.0 °F 94% 29.85 in 9.0 mi Calm Calm - N/A   Overcast
6:54 AM 60.1 °F 59.0 °F 96% 29.88 in 8.0 mi Calm Calm - N/A   Overcast
7:14 AM 60.8 °F 59.0 °F 94% 29.85 in 7.0 mi Calm Calm - N/A   Overcast
7:54 AM 61.0 °F 59.0 °F 93% 29.90 in 10.0 mi Calm Calm - N/A   Overcast
8:54 AM 62.1 °F 60.1 °F 93% 29.93 in 10.0 mi WSW 6.9 mph - N/A   Overcast
9:22 AM 62.6 °F 60.8 °F 94% 29.89 in 10.0 mi SSW 6.9 mph - N/A   Overcast
9:32 AM 62.6 °F 60.8 °F 94% 29.89 in 10.0 mi SW 5.8 mph - N/A   Overcast
9:54 AM 64.0 °F 61.0 °F 90% 29.92 in 10.0 mi SW 3.5 mph - N/A   Overcast
10:15 AM 64.4 °F 60.8 °F 88% 29.89 in 10.0 mi WSW 6.9 mph - N/A   Overcast
10:29 AM 64.4 °F 60.8 °F 88% 29.90 in 10.0 mi WNW 5.8 mph - N/A   Overcast
10:39 AM 62.6 °F 59.0 °F 88% 29.90 in 10.0 mi West 4.6 mph - N/A   Overcast
10:54 AM 63.0 °F 59.0 °F 87% 29.94 in 10.0 mi WNW 5.8 mph - N/A   Overcast
11:54 AM 66.0 °F 60.1 °F 81% 29.94 in 10.0 mi SW 6.9 mph - N/A   Overcast
12:03 PM 66.2 °F 60.8 °F 83% 29.90 in 10.0 mi SW 8.1 mph - N/A   Overcast
12:41 PM 68.0 °F 60.8 °F 78% 29.90 in 10.0 mi SW 10.4 mph - N/A   Overcast
12:54 PM 68.0 °F 60.1 °F 76% 29.94 in 10.0 mi WSW 11.5 mph - N/A   Overcast
1:18 PM 68.0 °F 59.0 °F 73% 29.90 in 10.0 mi SW 10.4 mph - N/A   Overcast
1:52 PM 69.8 °F 59.0 °F 68% 29.90 in 10.0 mi WSW 8.1 mph - N/A   Overcast
1:54 PM 69.1 °F 59.0 °F 70% 29.93 in 10.0 mi West 5.8 mph - N/A   Overcast
2:54 PM 71.1 °F 60.1 °F 68% 29.93 in 10.0 mi SE 6.9 mph - N/A   Overcast
3:54 PM 71.1 °F 59.0 °F 66% 29.93 in 10.0 mi WSW 11.5 mph - N/A   Overcast
4:31 PM 69.8 °F 59.0 °F 68% 29.89 in 10.0 mi SSW 9.2 mph - N/A   Overcast
4:54 PM 70.0 °F 59.0 °F 68% 29.91 in 10.0 mi SW 9.2 mph - N/A   Overcast
5:54 PM 68.0 °F 57.9 °F 70% 29.91 in 10.0 mi South 9.2 mph - N/A   Mostly Cloudy
6:54 PM 68.0 °F 57.9 °F 70% 29.93 in 10.0 mi Variable 4.6 mph - N/A   Overcast
7:54 PM 64.0 °F 55.9 °F 75% 29.94 in 10.0 mi ENE 6.9 mph - N/A   Overcast
8:35 PM 62.6 °F 55.4 °F 77% 29.92 in 10.0 mi NE 4.6 mph - N/A   Overcast
8:45 PM 62.6 °F 55.4 °F 77% 29.93 in 10.0 mi NE 3.5 mph - N/A   Overcast
8:54 PM 62.1 °F 55.9 °F 80% 29.96 in 10.0 mi NNE 3.5 mph - N/A   Overcast
9:54 PM 61.0 °F 55.9 °F 83% 29.97 in 10.0 mi East 4.6 mph - N/A   Overcast
10:54 PM 60.1 °F 55.9 °F 86% 29.98 in 10.0 mi ENE 4.6 mph - N/A   Overcast
11:54 PM 60.1 °F 55.9 °F 86% 29.98 in 10.0 mi ENE 4.6 mph - N/A   Overcast